STARLINK-1347, 45586

Orbit data source: Space-Track

STARLINK-1347, 45586 is a payload satellite owned by SpaceX/Seattle (US) in LEO that was launched on Wed, 22 Apr 2020 UTC via an FALCON 9 launch vehicle from the Air Force Eastern Test Range (AFETR). Payload-class satellites include a variety of spacecraft equipped with specific instruments for various scientific and technological missions. These include communications satellites like Starlink; space stations such as the ISS; scientific satellites like the Hubble; Earth observation satellites from companies like Planet Labs, Umbra, and HawkEye 360; GPS; miniature CubeSats for education and research; and military/defense satellites.

Loading next visibility...
Identifier
45586, 2020-025BH
Orbit
LEO
Country
Flag of USUS
Related business
Manufacturer
SpaceX/Seattle
Mission
Partially operational Commercial Communications
Bus & Motor
STARLINK, Unknown motor
Mass
260 kg wet, ~248 kg dry
Launch date (UTC)
2020-04-22 (6 years ago)
Launch vehicle
FALCON 9
Launch site
Air Force Eastern Test Range (AFETR)
Object type
Payload
Rocket body
Debris
Shape & HBR
Box + 1 Pan, 10.1 m
Radar Cross Section
13.562 m², Large (>1 m²)

Expand to show TLE details & history
Last TLE update: 8 hours ago

TLE from 8 hours ago
0 STARLINK-1347
1 45586U 20025BH  26258.00002315  .00121926  00000-0  58188-3 0  9995
2 45586  53.0321 174.8516 0005274 104.0023 190.5430 15.81966449  6027
Epoch: 2026-09-15T00:00Z
TLE epoch observation values (Epoch: 2026-09-15T00:00:02.000Z)
Latitude
-46.80997°
Longitude
127.99884°
Altitude
344.291 km
Speed
7.7 km/s
True Right ascension
08h 07m 55s
True Declination
-46° 37' 40"
Sunlit
Object was in daylight at epoch
Visualization orbit readout
Latitude
Unknown
Longitude
Unknown
Altitude
Unknown
Speed
Unknown
Apparent Right ascension
Unknown
Apparent Declination
Unknown
Sunlit
N/A
Visualization observer readout
Local Sidereal Time
00:59:50
Azimuth
Unknown
Elevation
Unknown
Doppler factor
Unknown
Orbital elements
Apogee altitude
328.699 km
Perigee altitude
321.628 km
Semi-major axis
6,703.3 km
Eccentricity
0.00053
Inclination
53.0321°
RAAN
174.8516°
Arg. of periapsis
104.0023°
True anomaly
190.53195°
Mean anomaly
190.543°
Eccentric anomaly
190.53747°
Mean motion
3.95467 °/min
Orbital period
91.03 mins
BSTAR
0.00058188
Loading maneuver chart data...
Computing Atmospheric mass density...

Documentation

Showing up to 5 results
|